User: anonymous   Login
Location: *
(18.5200°S, 46.4500°E)
Time: 18:32:19
(UTC+00:00)
Language:

NOAA 12 - Orbit

View from above orbital plane
View from above orbital plane
View from above satellite
View from above satellite

Ground track
Ground track

The orbit data is extracted from the following two-line orbital elements,

1 21263U 91032A   19288.50660600 -.00000012  00000-0  12799-4 0  9996
2 21263  98.5147 300.5496 0012870 319.0151  41.0061 14.25900371477906
Epoch (UTC): 15 October 2019 12:09:30
Eccentricity: 0.0012870
inclination: 98.5147°
perigee height: 796 km
apogee height: 815 km
right ascension of ascending node: 300.5496°
argument of perigee: 319.0151°
revolutions per day: 14.25900371
mean anomaly at epoch: 41.0061°
orbit number at epoch: 47790

The dashed part of the orbit path shows where the satellite is in the earth's shadow,  

DLR